Regional Weather Roundup
Issued by NWS

Home | Current Version | Previous Version | Graphics & Text | Print | Product List | Glossary On
Versions: 1 2 3 4 5 6 7 8 9 10 11 12 13 14 15 16 17 18 19 20 21 22 23 24 25 26 27 28 29 30 31 32 33 34 35 36 37 38 39 40 41 42 43 44 45 46 47 48 49 50
000
ASUS43 KMKX 251700
RWRWI

WISCONSIN REGIONAL WEATHER ROUNDUP
NATIONAL WEATHER SERVICE MILWAUKEE/SULLIVAN WI
1200 PM CDT MON JUL 25 2016

NOTE: "FAIR" INDICATES FEW OR NO CLOUDS BELOW 12,000 FEET WITH NO
SIGNIFICANT WEATHER AND/OR OBSTRUCTIONS TO VISIBILITY.

WIZ001-002-006>008-014>016-023>028-251800-
NORTHWEST WISCONSIN

CITY           SKY/WX    TMP DP  RH WIND       PRES   REMARKS
SUPERIOR ARPT  MOSUNNY   79  62  56 W12       30.01F HX  80
ASHLAND        SUNNY     79  59  50 NW10G18   30.02S HX  80
HAYWARD        SUNNY     77  58  51 VRB6      30.05S
SIREN          NOT AVBL
CUMBERLAND     SUNNY     73  57  56 NW10      30.07S
RICE LAKE      MOSUNNY   77  60  56 NW8       30.07F
CHETEK         SUNNY     77  62  58 NW7       30.06S
LADYSMITH      SUNNY     77  60  56 NW9       30.07S
EAU CLAIRE     NOT AVBL
MENOMONIE      SUNNY     81  60  48 NW14      30.06S HX  82
NEW RICHMOND   SUNNY     80  61  52 NW7       30.07S HX  81
OSCEOLA        SUNNY     78  64  60 NW7       30.09S HX  80
$$

WIZ003>005-009-010-017-018-251800-
NORTH CENTRAL WISCONSIN

CITY           SKY/WX    TMP DP  RH WIND       PRES   REMARKS
MANITOWISH WTR SUNNY     74  57  54 W9G18     30.03S
ARBOR VITAE    SUNNY     77  60  54 N13       30.03S
WOODRUFF       SUNNY     77  60  54 N13       30.03S
RHINELANDER    MOSUNNY   77  58  51 NW7       30.04R
EAGLE RIVER    MOSUNNY   75  55  49 N10G16    30.02S
LAND O LAKES   SUNNY     75  55  49 NW12G17   30.03S
PHILLIPS       MOSUNNY   74  61  62 NW9       30.04S
TOMAHAWK       SUNNY     75  58  55 W12       30.04S
MEDFORD        SUNNY     74  62  64 NW9G16    30.05S
MERRILL        MOSUNNY   76  62  60 NW10      30.03S
$$

WIZ029-030-035-036-043>047-251800-
CENTRAL WISCONSIN

CITY           SKY/WX    TMP DP  RH WIND       PRES   REMARKS
WAUSAU         MOSUNNY   78  59  51 NW14      30.01S
MOSINEE        MOSUNNY   77  63  61 NW14G20   30.04S
MARSHFIELD     SUNNY     79  62  56 NW10      30.04S HX  80
STEVENS POINT  MOSUNNY   77  62  60 W7        30.03S
WAUPACA        SUNNY     83  62  49 W8        30.00F HX  84
WAUTOMA        MOSUNNY   81  64  56 NW13G20   30.02S HX  82
WISC RAPIDS    SUNNY     82  59  45 NW12      30.04S HX  82
CAMP DOUGLAS   NOT AVBL
$$

WIZ011>013-019>022-031-037>040-048>050-251800-
NORTHEAST WISCONSIN

CITY           SKY/WX    TMP DP  RH WIND       PRES   REMARKS
ANTIGO         SUNNY     76  58  54 NW13G18   30.03R
SHAWANO        MOSUNNY   81  62  52 NW8       29.99S HX  82
OCONTO         SUNNY     80  63  55 W14G20    29.95S HX  81
STURGEON BAY   SUNNY     79  62  56 W12G20    29.96S HX  80
GREEN BAY      SUNNY     80  67  64 NW13G21   29.97F HX  82
MANITOWOC      NOT AVBL
APPLETON       MOSUNNY   79  59  50 NW12G17   29.99S HX  80
CLINTONVILLE   MOSUNNY   79  59  50 W13G18    29.99S HX  80
OSHKOSH        SUNNY     81  63  54 NW14G21   30.00S HX  82
$$

WIZ032>034-041-042-053>061-251800-
SOUTHWEST WISCONSIN

CITY           SKY/WX    TMP DP  RH WIND       PRES   REMARKS
LA CROSSE      SUNNY     83  63  50 NW10      30.04S HX  84
SPARTA         MOSUNNY   80  63  57 NW10      30.06R HX  81
VIROQUA        SUNNY     78  62  58 NW10      30.07S
BOSCOBEL       MOSUNNY   85  64  49 NW10      30.05S HX  86
PRAIRIE DU CHI SUNNY     81  57  44 NW13      30.04F HX  81
PLATTEVILLE    SUNNY     79  66  64 NW9       30.06S HX  81
$$

WIZ056-057-062-063-064-067-068-251800-
SOUTH CENTRAL WISCONSIN

CITY           SKY/WX    TMP DP  RH WIND       PRES   REMARKS
REEDSBURG      MOSUNNY   80  64  59 NW13      30.04R HX  81
BARABOO/DELLS  PTSUNNY   78  62  58 NW12      30.04R HX  80
LONE ROCK      NOT AVBL
MINERAL POINT  SUNNY     81  63  54 NW12      30.07R HX  82
MADISON        MOSUNNY   82  64  54 NW9       30.03R HX  83
MIDDLETON      PTSUNNY   82  65  57 NW8       30.04S HX  83
WATERTOWN      SUNNY     81  66  60 NW8       30.02R HX  83
MONROE         MOSUNNY   81  63  54 NW10      30.05S HX  82
JANESVILLE     MOSUNNY   84  64  51 NW8       30.01F HX  86
$$

WIZ051-052-058>065-066-070>072-251800-
SOUTHEAST WISCONSIN

CITY           SKY/WX    TMP DP  RH WIND       PRES   REMARKS
MILWAUKEE      MOSUNNY   85  62  46 N10       29.99F HX  85
WAUKESHA       SUNNY     79  63  57 W10       30.02S HX  80
MILWAUKEE/TIMM MOSUNNY   82  57  42 W10       30.01S HX  82
RACINE         SUNNY     84  63  49 NW8       30.01S HX  85
BURLINGTON     SUNNY     81  64  56 NW7       30.01S HX  83
KENOSHA        SUNNY     83  65  54 N12G17    30.00F HX  85
FOND DU LAC    SUNNY     82  63  52 NW10      30.00S HX  83
SHEBOYGAN      SUNNY     81  62  52 NW12      29.99S HX  82
WEST BEND      SUNNY     81  61  50 NW12G17   30.01R HX  81
JUNEAU         MOSUNNY   78  65  65 W8        30.04R HX  80
$$

LSZ147-162-251800-
LAKE SUPERIOR

STATION/POSITION TIME  TEMP    WIND        PRES    WAVE
                       AIR SEA DIR/SP/G            HT/PER
                 (UTC) (F)     (DEG/KT/KT) (MB)    (FT/S)
W MID LAKE BUOY  1550   62 59  250/ 14/ 17 1014.0R   1/ 4
DEVILS ISLAND    1600   65     240/ 18/ 20 1015.4R
SAXON HARBOR     1640   76      60/  1/  5 1015.9R
$$

LMZ867-665-643>646-251800-
LAKE MICHIGAN

STATION/POSITION TIME  TEMP    WIND        PRES    WAVE
                       AIR SEA DIR/SP/G            HT/PER
                 (UTC) (F)     (DEG/KT/KT) (MB)    (FT/S)
CHAMBERS ISLAND  1600   79     260/  3/  8 1013.5S
N MID LAKE BUOY  1550   70 69  260/ 10/ 12 1012.4R   2/ 5
NORTHPORT PIER   1640   77     300/  8/ 14 1013.2S
SISTER BAY       1606   77     310/  9/ 10   N/A
ALGOMA LAKESHORE 1613          320/ 13/ 18   N/A
KEWAUNEE LAKESHO 1600   78     290/  6/ 12 1014.1R
SHEBOYGAN LAKESH 1600   78     300/ 13/ 15 1015.0R
PORT WASHINGTON  1600   83     330/  7/ 10 1015.9
MILWAUKEE LAKESH 1610   80     320/  9/ 11   N/A
S MID LAKE BUOY  1550   72 72  320/ 10/ 12 1015.0R   2/ 4
KENOSHA   LAKESH 1600   80     330/ 12/ 17 1015.2S
$$

TC  - TEMPERATURE IN CELSIUS
VSB - VISIBILITY IN STATUTE MILES
WCI - WIND CHILL INDEX
HX  - HEAT INDEX





USA.gov is the U.S. government's official web portal to all federal, state and local government web resources and services.